Weather observations for the past three days for
Klawock - Klawock Airport
Imperial (Metric)
Date Time (akdt) Wind (mph) Vis. (mi.) Weather Sky Cond. Temperature (ºF) Relative Humidity Wind Chill (°F) Heat Index (°F) Pressure Precipitation (in)
Air Dwpt 6 hour altimeter (in) sea level (mb) 1 hr 3 hr 6 hr
Max. Min.
19 06:53 Calm 10.00 Partly Cloudy FEW034 SCT100 62.1 59 90% 30.01 1016.2 0.01 0.01
19 05:53 Calm 10.00 Overcast OVC110 61 57.9 90% 30 1015.9
19 04:53 Calm 10.00 Mostly Cloudy BKN120 59 57 93% 30 1015.7
19 03:53 Calm 10.00 Fair CLR 60.1 57 63 60.1 90% 29.99 1015.3
19 02:53 Calm 10.00 Mostly Cloudy SCT035 BKN050 61 57.9 90% 29.99 1015.3
19 01:53 Calm 10.00 Fair CLR 62.1 59 90% 29.99 1015.3
19 00:53 Calm 10.00 Overcast SCT047 OVC055 63 59 87% 30 1015.7
18 23:53 NE 5 10.00 Partly Cloudy FEW044 SCT100 62.1 59 90% 29.99 1015.5
18 22:53 Calm 10.00 Overcast BKN045 OVC060 61 59 93% 30 1015.7
18 21:53 Calm 10.00 Overcast FEW018 OVC055 62.1 59 66 62.1 90% 30 1015.8
18 20:53 Calm 9.00 Light Rain BKN016 OVC022 63 60.1 90% 30 1015.8
18 19:53 SW 5 10.00 Light Rain OVC015 64 61 90% 30 1015.9
18 18:53 Calm 10.00 Overcast SCT011 BKN024 OVC032 66 61 84% 30 1015.9
18 17:53 Calm 10.00 Overcast BKN012 BKN021 OVC027 64.9 60.1 84% 30.01 1016.2
18 16:53 Calm 10.00 Overcast BKN018 OVC022 64 59 84% 30.02 1016.6
18 15:53 S 3 9.00 Overcast BKN013 OVC033 64 59 71.1 63 84% 30.03 1016.8
18 14:53 S 5 7.00 Overcast SCT019 BKN026 OVC032 64 60.1 87% 30.03 1016.7
18 13:53 SW 3 10.00 Overcast BKN022 OVC032 66 61 84% 30.02 1016.5
18 12:53 Calm 10.00 Overcast FEW016 BKN043 OVC065 69.1 61 76% 30.01 1016.1
18 11:53 Vrbl 3 10.00 Mostly Cloudy FEW015 BKN026 BKN060 69.1 61 76% 30 1016.0
18 10:53 Calm 10.00 Overcast OVC020 64 60.1 87% 30.01 1016.0
18 09:53 Calm 10.00 Mostly Cloudy SCT007 BKN027 63 57.9 64.9 57.9 84% 30 1015.8
18 07:53 Calm 10.00 Overcast OVC005 60.1 57 90% 29.99 1015.4
18 06:53 Calm 10.00 Overcast OVC006 59 55.9 90% 29.98 1015.0
18 05:53 Calm 4.00 Fog/Mist BKN005 BKN011 OVC045 57.9 55.9 93% 29.97 1014.7
18 04:53 Calm 5.00 Fog/Mist BKN004 OVC042 57.9 55.9 93% 29.96 1014.5
18 03:53 Calm 8.00 Overcast OVC004 57.9 55.9 59 57.9 93% 29.95 1014.3
18 01:53 Calm 10.00 Overcast OVC005 57.9 55.9 93% 29.95 1014.1
18 00:53 Calm 10.00 Overcast SCT005 BKN008 OVC015 59 57 93% 29.94 1014.0
17 23:53 Calm 10.00 Overcast OVC015 59 57 93% 29.95 1014.0
17 22:53 Calm 6.00 Fog/Mist SCT006 OVC009 59 57 93% 29.94 1013.7
17 21:53 Vrbl 3 10.00 Overcast OVC006 59 57 62.1 59 93% 29.93 1013.6 0.35
17 20:53 Calm 6.00 Light Rain Fog/Mist BKN012 BKN020 OVC032 59 57 93% 29.92 1013.1
17 19:53 SW 6 4.00 Fog/Mist BKN014 OVC020 59 57 93% 29.91 1012.9 0.01
17 17:53 SW 7 4.00 Light Rain Fog/Mist FEW009 BKN020 OVC041 61 59 93% 29.91 1012.6 0.18
17 16:53 Calm 1.25 Rain Fog/Mist SCT005 BKN014 OVC018 62.1 60.1 93% 29.9 1012.4 0.16
17 15:53 S 8 1.50 Rain Fog/Mist FEW018 BKN024 OVC031 63 60.1 64 62.1 90% 29.89 1012.0 0.08 0.62
17 12:53 Vrbl 7 6.00 Light Rain Fog/Mist BKN022 OVC029 63 59 87% 29.88 1011.6 0.09 0.38
17 09:53 E 3 2.50 Rain Fog/Mist OVC023 63 60.1 63 60.1 90% 29.83 1010.0 0.15 0.47
17 08:53 Calm 2.50 Light Rain Fog/Mist FEW016 BKN027 OVC033 63 60.1 90% 29.82 1009.7 0.07
17 07:53 Calm 3.00 Light Rain Fog/Mist FEW027 BKN034 OVC050 62.1 60.1 93% 29.82 1009.6 0.08
17 06:53 Calm 4.00 Light Rain Fog/Mist SCT029 OVC047 61 59 93% 29.81 1009.5 0.07 0.17
17 05:53 Calm 4.00 Light Rain Fog/Mist FEW028 OVC055 60.1 57.9 93% 29.82 1009.7 0.07
17 04:53 NW 5 5.00 Light Rain Fog/Mist FEW043 OVC055 60.1 57.9 93% 29.82 1009.8 0.03
17 03:53 NE 5 9.00 Light Rain BKN048 OVC060 61 57.9 61 60.1 90% 29.82 1009.8 0.02 0.04
17 02:53 Calm 8.00 Light Rain OVC055 60.1 57.9 93% 29.84 1010.5
17 01:53 Calm 10.00 Overcast OVC065 61 57.9 90% 29.86 1010.9
17 00:53 NE 3 10.00 Overcast SCT049 OVC070 61 57.9 90% 29.87 1011.3 0.01 0.02
16 23:53 NE 5 9.00 Light Rain OVC070 61 59 93% 29.88 1011.7
16 22:53 Calm 10.00 Light Rain SCT049 SCT065 OVC090 61 59 93% 29.89 1012.1 0.01
16 19:53 Vrbl 5 8.00 Light Rain FEW022 BKN028 OVC035 62.1 59 90% 29.93 1013.4 0.02
16 18:53 Calm 4.00 Light Rain Fog/Mist SCT009 OVC032 63 60.1 90% 29.95 1014.0 0.05 0.12
16 17:53 Vrbl 3 2.50 Light Rain Fog/Mist FEW018 BKN036 OVC047 63 61 93% 29.96 1014.5 0.04
16 16:53 Calm 2.50 Light Rain Fog/Mist BKN039 OVC047 63 60.1 90% 29.98 1015.2 0.03
16 15:53 Calm 2.50 Light Rain Fog/Mist FEW004 BKN030 OVC034 63 60.1 63 59 90% 29.99 1015.6 0.04 0.11
16 14:53 Calm 4.00 Light Rain Fog/Mist FEW014 BKN030 OVC041 63 60.1 90% 30 1016.0 0.03
16 13:53 Calm 5.00 Light Rain Fog/Mist FEW016 OVC046 62.1 59 90% 30.01 1016.1 0.02
16 12:49 Calm 10.00 Light Rain SCT014 SCT027 OVC039 61 57.9 90% 30.02 1016.5 0.01 0.02
16 11:53 Calm 4.00 Light Rain Fog/Mist OVC007 60.1 57 90% 30.02 1016.6 0.01
16 10:53 Calm 7.00 Overcast FEW006 BKN024 OVC035 60.1 57 90% 30.04 1017.1
16 09:53 Calm 10.00 Light Rain FEW014 OVC037 59 55.9 60.1 57 90% 30.03 1016.8 0.02 0.02
16 08:53 Calm 8.00 Light Rain FEW008 SCT013 OVC045 59 55.9 90% 30.03 1016.7
16 07:53 Calm 10.00 Overcast FEW023 SCT032 OVC046 60.1 55.9 86% 30.03 1016.7
Date Time (akdt) Wind (mph) Vis. (mi.) Weather Sky Cond. Air Dwpt Max. Min. Relative Humidity Wind Chill (°F) Heat Index (°F) altimeter (in) sea level (mb) 1 hr 3 hr 6 hr
6 hour
Temperature (ºF) Pressure Precipitation (in)